Погода Остров Хейса

Погода Остров Хейса : погода сейчас, прогноз погоды и архив. Всё, что Вы хотите узнать о погоде Остров Хейса!

Поиск расширенной информации на нашем сайте:

Другие новости

Новости СМИ2

Главная страница сайта

Новости сайта

03.07.2017

Напоминаем, что на нашем специализированном сайте Метеоцентр.Азия вы можете получить высокодетализированные автоматические прогнозы погоды по пунктам России, СНГ и мира в авиационном формате (включающие направление и скорость ветра, видимость, явления погоды, количество и форму облачности, нижнюю и верхнюю границу облачности).

Рекомендуем: Свадебные арки в Киеве - http://flordekor.com.ua/index.php?p=9 Флордекор.

Погода Остров Хейса - сегодня

Время (UTC), дата Ветер
(°,м/с) 
Видим.   Явления Облачность Т
(°С)
Тd
(°С)
f(%) Тe
(°С)
Pmin
(гПа)
dP
(гПа)
Po
(мм)
O2
(г/м3)
Тmin Tmax R s Состояние
почвы
18 21.11.17 060 (СВ) 20000 м  позёмок{снег}  6/0 средняя 
[Ac trans]
-14.3 -16 87 -21  1046.7  783  334    -11.1  0.0     
21 21.11.17 080 (В) 20000 м    1/0 верхняя 
[Ci fib]
-15.4 -17 88 -21  1047.4  0.7  783  336           
00 22.11.17 060 (СВ) 20000 м    9/9 700 м 
[Sc]
-16.2 -17.9 87 -21  1047.9  0.4  784  337  -16.2         
03 22.11.17 070 (В) 20000 м    3/0 верхняя 
[Ci fib]
-17.3 -19.2 85 -21  1048.1  0.3  784  339  -18.1         
06 22.11.17 070 (В) 20000 м    ясно 
-17.4 -18.9 88 -21  1048.4  0.2  784  339           
09 22.11.17 090 (В) 20000 м    3/0 верхняя 
[Ci fib]
-17.3 -18.8 88 -22  1049.1  0.7  784  339           
12 22.11.17 010 (С) 20000 м    ясно 
-15.9 -17.6 87 -18  1049.4  0.4  785  337           
15 22.11.17 050 (СВ) 20000 м    3/0 средняя 
[Ac trans]
-14.8 -16.2 89 -21  1049.1  -0.3  785  336           
18 22.11.17 060 (СВ) 20000 м    3/0 средняя 
[Ac trans]
-15.2 -17 86 -22  1049.2  0.1  785  336           
21 22.11.17 070 (В) 20000 м    ясно 
-16.1 -17.6 88 -20  1049.4  0.2  785  338           
00 23.11.17 040 (СВ) 20000 м    4/3 300 м средняя, верхняя 
[Sc|Ac trans|Ci fib]
-16.7 -18.1 89 -21  1048.4  -1  784  338           
03 23.11.17 040 (СВ) 20000 м    4/4 300 м 
[Sc]
-17.5 -19.2 87 -21  1047.8  -0.7  783  339           
06 23.11.17 020 (С) 20000 м    9/9 360 м 
[Sc]
-18 -19.8 86 -18  1046.9  -0.8  783  339  -18.2         
09 23.11.17 030 (СВ) 20000 м    8/8 480 м 
[Sc]
-17.4 -19 87 -20  1046.2  -0.7  782  338           
12 23.11.17 060 (СВ) 20000 м    9/0 средняя 
[Ac trans]
-17.7 -19.4 87 -18  1044.9  -1.3  781  338           
15 23.11.17 270 (З) 20000 м    6/0 средняя 
[Ac trans]
-19.2 -21 86 -19  1043.6  -1.3  780  340           
18 23.11.17 тихо ()   20000 м    3/0 средняя 
[Ac trans]
-19.8 -21.7 85 -20  1042.3  -1.3  779  340    -16.8       
21 23.11.17 220 (ЮЗ) 20000 м    3/0 средняя, верхняя 
[Ac trans|Ci fib]
-20.3 -22.3 84 -21  1040.6  -1.8  778  340           
00 24.11.17 260 (З) 20000 м    1/0 верхняя 
[Ci fib]
-19.5 -21.3 86 -20  1039  -1.6  777  339  -20.6         
03 24.11.17 240 (ЮЗ) 20000 м    ясно 
-19.1 -20.8 86 -19  1037  -2  775  338           
06 24.11.17 250 (З) 20000 м    9/9 840 м 
[Sc]
-16.7 -18.3 87 -17  1035.1  -1.8  774  334           
09 24.11.17 260 (З) 20000 м    9/9 600 м 
[Sc]
-14.2 -15.5 90 -18  1033.5  -1.6  773  330           
12 24.11.17 260 (З) 4000 м  слаб. снег  10/8 450 м средняя 
[Sc|As op]
-12.9 -14.2 90 -18  1031.5  -2  771  328           
15 24.11.17 270 (З) 20000 м  {снег}  10/6 570 м средняя 
[Sc|Ac und]
-10.8 -12 91 -16  1029.7  -1.8  770  324           
18 24.11.17 280 (З) 4000 м  слаб. снег  10/8 480 м средняя 
[Sc|As op]
-10.1 -11.7 88 -15  1027.6  -2  768  323    -10.7  0.4     
Время (UTC), дата Ветер
(°,м/с) 
Видим.   Явления Облачность Т
(°С)
Тd
(°С)
f(%) Тe
(°С)
Pmin
(гПа)
dP
(гПа)
Po
(мм)
O2
(г/м3)
Тmin Tmax R s Состояние
почвы

Для получения пояснительной информации подведите курсор к названию столбца.

ПОГОДА Остров Хейса - архив

Всё, что Вы хотите узнать о погоде Остров Хейса - удобно и подробно!

Выберите нужную дату (начиная с 1 января 2015* года) и нажмите кнопку "Найти".
Будут отображены архивные сводки погоды по пункту Остров Хейса, начиная с указанной даты.


Отображать данные в формате CSV (для использования в таблицах Excel)


Внимание! Наш архив погоды предназначен исключительно для личного некоммерческого использования в познавательных целях. Если Вам необходимы официальные справки о состоянии погоды (для производственных, юридических, коммерческих и т.п. целей), обращайтесь в органы Росгидромета.

*Примечание: данная дата относится к архиву по метеостанциям СССР (Россия, СНГ, Балтия).
Архив по метеостанциям Зарубежной Европы и Азии (кроме Китая) хранится 10 дней, по другим регионам земного шара (Китай, Африка, Америка, Австралия, Океания) - 1 день.

Остров Хейса - район местоположения метеостанции


Название, широта, долгота, высота метеостанции:
Остров Хейса (Обсерватория Им.Кренкеля) 80.6°ш. 58.1°д. 22 м над ур. моря [Российская Федерация]

Дополнительная информация

В oтличие oт бoльшинства пoгoдных сайтoв мы публикуем пoдрoбную метеoинфoрмацию в детальнoм прoфессиoнальнoм фoрмате.

Характеристики температуры и влажнoсти вoздуха измеряются на высoте 2 м в тени вдали oт зданий и деревьев.
Скoрoсть ветра измеряется на высoте 10 м (на урoвне рoста челoвека скoрoсть ветра ниже в 1.5-2 раза). Если метеoстанция нахoдится в гoрoде или в лесу, тo скoрoсть ветра занижена на 2-4 м/с пo сравнению с oткрытым местoм. Скoрoсть ветра над акватoриями крупных рек и oзёр, а также на вершинах хoлмoв на 2-5 м/с выше, чем в oбычных услoвиях.
Атмoсфернoе давление в разных тoчках местнoсти мoжет значительнo oтличаться oт давления на метеoстанции, в зависимoсти oт услoвий рельефа (при пoдъёме на 10 м давление пoнижается примернo на 1 мм рт.ст.).